This is the latest recevied weather packets stored in our database for station/object KB9YVI-11. If no packets are shown the sender has not sent any weather packets the latest 10 day(s).
| Time | Temp. | Humidity | Pressure | Rain* | Wind** | Luminosity | Snow |
|---|---|---|---|---|---|---|---|
| 1777588247 | 15.56° C | 69% | 0 hPa | 0 mm | - | - | - |
| 1777587948 | 15.56° C | 73% | 0 hPa | 0 mm | - | - | - |
| 1777587348 | 16.11° C | 72% | 0 hPa | 0 mm | - | - | - |
| 1777587048 | 16.11° C | 69% | 0 hPa | 0 mm | - | - | - |
| 1777586748 | 16.67° C | 68% | 0 hPa | 0 mm | - | - | - |
| 1777586148 | 16.67° C | 67% | 0 hPa | 0 mm | - | - | - |
| 1777585848 | 16.67° C | 68% | 0 hPa | 0 mm | - | - | - |
| 1777585548 | 16.67° C | 67% | 0 hPa | 0 mm | - | - | - |
| 1777585248 | 16.11° C | 68% | 0 hPa | 0 mm | - | - | - |
| 1777584948 | 16.67° C | 67% | 0 hPa | 0 mm | - | - | - |
| 1777584647 | 16.67° C | 66% | 0 hPa | 0 mm | - | - | - |
| 1777584348 | 17.22° C | 66% | 0 hPa | 0 mm | - | - | - |
| 1777583748 | 17.22° C | 65% | 0 hPa | 0 mm | - | - | - |
| 1777583448 | 17.22° C | 65% | 0 hPa | 0 mm | - | - | - |
| 1777583148 | 17.78° C | 66% | 0 hPa | 0 mm | - | - | - |
| 1777582848 | 17.78° C | 65% | 0 hPa | 0 mm | - | - | - |
| 1777582548 | 17.22° C | 67% | 0 hPa | 0 mm | - | - | - |
| 1777582248 | 17.22° C | 65% | 0 hPa | 0 mm | - | - | - |
| 1777581948 | 17.22° C | 64% | 0 hPa | 0 mm | - | - | - |
| 1777581648 | 17.22° C | 65% | 0 hPa | 0 mm | - | - | - |
| 1777581348 | 17.22° C | 69% | 0 hPa | 0 mm | - | - | - |
| 1777581047 | 17.22° C | 67% | 0 hPa | 0 mm | - | - | - |
| 1777580748 | 16.67° C | 66% | 0 hPa | 0 mm | - | - | - |
| 1777580448 | 16.67° C | 68% | 0 hPa | 0 mm | - | - | - |
| 1777580148 | 16.67° C | 66% | 0 hPa | 0 mm | - | - | - |
* Rain latest hour (hover to see other rain measurements)
** Current wind speed in m/s (hover to see current wind gust speed)